Overview Statistics Trail Chart Weather Telemetry Raw packets
 

This is the latest recevied weather packets stored in our database for station/object SV9TNF-51. If no packets are shown the sender has not sent any weather packets the latest 10 day(s).

<< 49 50 51 52 53 54 55 >>
Time Temp. Humidity Pressure Rain* Wind** Luminosity Snow
1788338921 33.33° C 42% 1012.2 hPa 0 mm 5.81 m/s, 358° - -
1788338620 32.78° C 44% 1012.2 hPa 0 mm 4.92 m/s, 121° - -
1788338320 33.33° C 43% 1012.2 hPa 0 mm 8.94 m/s, 314° - -
1788338020 33.33° C 44% 1011.9 hPa 0 mm 1.34 m/s, 118° - -
1788337720 32.78° C 44% 1011.9 hPa 0 mm 1.79 m/s, 98° - -
1788337420 33.33° C 42% 1011.9 hPa 0 mm 5.81 m/s, 82° - -
1788337120 33.33° C 42% 1011.9 hPa 0 mm 8.05 m/s, 104° - -
1788336820 32.78° C 42% 1011.9 hPa 0 mm 1.79 m/s, 262° - -
1788336520 33.33° C 41% 1011.9 hPa 0 mm 4.47 m/s, 305° - -
1788336220 33.89° C 39% 1011.9 hPa 0 mm 3.58 m/s, 128° - -
1788335919 34.44° C 39% 1011.9 hPa 0 mm 0.89 m/s, 125° - -
1788335620 34.44° C 36% 1011.9 hPa 0 mm 1.34 m/s, 132° - -
1788335320 34.44° C 37% 1011.9 hPa 0 mm 1.34 m/s, 113° - -
1788335019 34.44° C 38% 1011.9 hPa 0 mm 0.89 m/s, 137° - -
1788334719 33.89° C 38% 1011.9 hPa 0 mm 2.68 m/s, 125° - -
1788334419 33.33° C 39% 1011.9 hPa 0 mm 1.79 m/s, 295° - -
1788334119 33.33° C 39% 1011.9 hPa 0 mm 3.13 m/s, 135° - -
1788333819 33.33° C 35% 1011.9 hPa 0 mm 0 m/s - -
1788333519 32.22° C 37% 1011.9 hPa 0 mm 1.34 m/s, 101° - -
1788333218 32.22° C 38% 1011.9 hPa 0 mm 2.68 m/s, 157° - -
1788332919 32.78° C 37% 1011.9 hPa 0 mm 4.92 m/s, 120° - -
1788332618 32.78° C 38% 1011.9 hPa 0 mm 1.34 m/s, 101° - -
1788332318 31.67° C 40% 1011.9 hPa 0 mm 2.24 m/s, 116° - -
1788332018 32.22° C 40% 1011.9 hPa 0 mm 0.89 m/s, 117° - -
1788331718 31.67° C 43% 1011.9 hPa 0 mm 2.68 m/s, 128° - -

* Rain latest hour (hover to see other rain measurements)
** Current wind speed in m/s (hover to see current wind gust speed)